Accueil
METAR-TAF:

METAR-TAF

Aéroports :

Cleburne Municipal Airport

Cleburne, Texas, États-Unis

latitude: 32-21-13N, longitude: 097-26-01W, altitude: 260 m

Observation

Le bulletin a été fait il y a 26 minutes, à 07:15 UTC
Vent 3 kt de nord-ouest
Température 21°C
Humidité 100%
Pression 1014 hPa
Visibilité: 6.4 km
Ciel couvert à une hauteur de 800 ft
brume

METAR: KCPT 240715Z AUTO 32003KT 4SM BR OVC008 21/21 A2993 RMK AO2

Heure: 02:41 (07:41 UTC)


TAF: absent

Observations et prévisions météorologiques de plus de 4000 aéroports (messages METAR et TAF).

Les stations disponibles sont représentées par des disques jaunes et rouges sur la carte.

Passer la souris dessus pour voir le nom de la station.

Cliquer dessus pour voir les observations et prévisions météorologiques.

Pour changer de carte: cliquez sur les boutons verts avec une croix noire pour zoomer, sur le bouton vert avec un tiret pour effectuer un zoom arrière, ou sur les flèches vertes pour les cartes adjacentes.


METAR-TAF: